Tracking 29969 objects as of 6-Dec-2024
HD Live streaming from Space Station
objects crossing your sky now

STARLINK-30200

Track STARLINK-30200 now!
10-day predictions
STARLINK-30200 is classified as:


NORAD ID: 57306
Int'l Code: 2023-096S
Perigee: 565.2 km
Apogee: 567.2 km
Inclination: 43.0 °
Period: 95.8 minutes
Semi major axis: 6937 km
RCS: Unknown
Launch date: July 10, 2023
Source: United States (US)
Launch site: AIR FORCE EASTERN TEST RANGE (AFETR)
Your satellite tracking list
Your tracking list is empty




NASA's NSSDC Master Catalog

Two Line Element Set (TLE):
1 57306U 23096S   24340.95831647  .00000406  00000-0  45140-4 0  9995
2 57306  43.0034 195.6582 0001453 253.2495 106.8188 15.02537978 77526
Source of the keplerian elements: AFSPC